Location: Macksville High School
(37.9611°N, 99.9654°W)
Time: 06:43:43
(UTC+00:00)

Atlas Centaur 2 - Pass Details

Date: 27 February 2020
Orbit: 459 x 1310 km, 30.4° (Epoch: 08 April)

Event Time Altitude Azimuth Distance (km) Brightness Sun altitude
Exits shadow 12:45:57 - 261° (W) 3,410 4.7 -6.5°
Reaches altitude 10° 12:46:57 10° 259° (W) 3,105 4.5 -6.3°
Maximum altitude 12:54:27 46° 189° (S) 1,667 3.7 -4.8°
Drops below altitude 10° 13:02:28 10° 120° (ESE) 3,314 6.7 -3.2°
Sets 13:05:33 0° 115° (ESE) 4,256 7.7 -2.6°
